Regional Weather Roundup
Issued by NWS

Home | Current Version | Previous Version | Text Only | Print | Product List | Glossary On
Versions: 1 2 3 4 5 6 7 8 9 10 11 12 13 14 15 16 17 18 19 20 21 22 23 24 25 26 27 28 29 30 31 32 33 34 35 36 37 38 39 40 41 42 43 44 45 46 47 48 49 50
000
ASUS43 KTOP 240508
RWRKS

WEATHER ROUNDUP FOR KANSAS
NATIONAL WEATHER SERVICE GOODLAND KS
1200 AM CDT FRI MAR 24 2017

NOTE:  "FAIR" INDICATES FEW OR NO CLOUDS BELOW 12,000 FEET WITH NO
SIGNIFICANT WEATHER AND/OR OBSTRUCTIONS TO VISIBILITY.

KSZ001>006-013>018-027>032-041>047-240600-
NORTHWEST KANSAS

CITY           SKY/WX    TMP DP  RH WIND       PRES   REMARKS
GOODLAND       CLOUDY    59  47  64 SE20G31   29.57R
HAYS             N/A     60  49  66 E7        29.65F
HILL CITY      CLOUDY    57  55  93 VRB3      29.63F
RUSSELL        CLOUDY    72  47  40 S21G31    29.66R
$$

KSZ061>065-074>080-084>089-240600-
SOUTHWEST KANSAS

CITY           SKY/WX    TMP DP  RH WIND       PRES   REMARKS
DODGE CITY     CLOUDY    69  43  38 S24G31    29.63F
ELKHART          N/A     57  37  47 SW16        N/A
GARDEN CITY    LGT RAIN  56  53  90 NE13      29.55F
GREAT BEND     CLOUDY    69  47  45 S20       29.67S
LIBERAL        MOCLDY    63  46  55 S20       29.61R
PRATT          PTCLDY    67  42  40 S20G30    29.71R
$$

KSZ066>073-081>083-090>101-240600-
SOUTHEAST KANSAS

CITY           SKY/WX    TMP DP  RH WIND       PRES   REMARKS
CHANUTE        PTCLDY    68  50  52 SE17      29.79F
COFFEYVILLE    CLEAR     69  50  50 SE13      29.80F
HUTCHINSON     MOCLDY    70  46  42 S16       29.70R
MEDICINE LODGE   N/A     70  44  39 S18G25    29.70R
NEWTON         MOCLDY    70  48  45 S25G35    29.71R
PARSONS        CLEAR     71  50  47 S14G24    29.81F
WICHITA INTL   MOCLDY    71  48  43 S22G30    29.70R
WICHITA JABRA  CLOUDY    71  49  45 S23G38    29.71S
WICHITA MCCONL MOCLDY    72  48  43 S30G36    29.71S
WINFIELD       CLOUDY    72  48  42 S29G38    29.73F
$$

KSZ007>012-019>026-033>040-048>060-102>105-240600-
NORTHEAST KANSAS

CITY           SKY/WX    TMP DP  RH WIND       PRES   REMARKS
CONCORDIA      CLOUDY    72  47  40 S22G31    29.68S
EMPORIA        MOCLDY    69  50  50 S22G31    29.72F
LAWRENCE       MOCLDY    69  49  48 SE15      29.77S
MANHATTAN      MOCLDY    72  51  47 S9        29.73R
MARYSVILLE     CLOUDY    70  52  52 S15G22    29.72F
OLATHE IND     CLOUDY    69  48  47 S22G30    29.77F
OLATHE EXE     MOCLDY    67  48  50 S22       29.78F
SALINA         MOCLDY    74  47  38 S17G28    29.70R
TOPEKA BILLARD CLOUDY    70  51  51 S17G25    29.73F
TOPEKA FORBES  CLOUDY    70  50  49 S15G25    29.74F
$$




USA.gov is the U.S. government's official web portal to all federal, state and local government web resources and services.